{"data":{"norad_id":67448,"intl_designator":"2026-008D","name":"STARLINK-36423","alt_names":[],"object_type":"PAYLOAD","status":"ACTIVE","operator":null,"country":"US","launch_date":"2026-01-14","launch_site_code":"AFETR","launch_vehicle":null,"mission":null,"orbit_class":"UNKNOWN","rcs_meters":null,"size_class":null,"mass_kg":null,"dimensions":null,"purposes":["comms"],"wikipedia_slug":null,"has_3d_model":false,"image_url":null,"decayed_at":null,"tle_current":{"epoch":"2026-09-18T23:26:16.294272Z","epoch_age_seconds":206942,"freshness":"STALE","line1":"1 67448U 26008D   26261.97657748  .00013054  00000+0  48293-3 0  9996","line2":"2 67448  42.9934 193.5883 0000270 281.2494  78.8328 15.27588787 39138","mean_motion":15.27588787,"eccentricity":2.7e-5,"inclination_deg":42.9934,"raan_deg":193.5883,"arg_perigee_deg":281.2494,"mean_anomaly_deg":78.8328,"bstar":0.00048293,"rev_number":3913,"period_min":94.266206472226,"perigee_km":482.83753341248,"apogee_km":483.20803604086,"semimajor_km":6861.1597847267,"source":"CELESTRAK","updated_at":"2026-09-20T09:00:43.526903Z"}}}